Gambell Airport
PAGM : now visible

Aeroporto :











RITROVATECI SU...

 
LOGIN :

Iscrizione | Disclaimer

   EN    FR    IT 

 









Sommario :    VFR   VFR Marginale   IFR   IFR Intensivo   IFR Molto Intensivo
Visibilità : 
Base nubi : 
>= 8 km
>= 3000ft
5 / 8 km
1000 / 3000 ft
1500m / 5 km
500 / 1000 ft
800 / 1500m
200 / 500 ft
< 800m
< 200 ft
Simboli :   Temporali  Nebbia  Neve Forte  Precipitazioni Forti  Vento > 20 kt






- Altitudine del aeroporto : 27 ft
- Codice IATA : GAM


PAGM - Gambell

ULTIMO METAR :
  • 031856Z AUTO 00000KT 10SM CLR M08/M13 A2981 RMK AO2 SLP101 T10831128 FZRANO

METARs OBSOLETI :
  • 031756Z AUTO 32003KT 10SM CLR M06/M12 A2979 RMK AO2 SLP094 T10611117 11061 21072 51019 FZRANO
  • 031656Z AUTO 31009KT 10SM CLR M06/M13 A2978 RMK AO2 SLP089 T10611128 FZRANO

TAF N/A
FIR PAZA / America del Nord



MetMap, La meteo Aeronautica in un colpo d'occhio ! - Copyright ORBIFLY Dicembre 2007 - Disclaimer

ORBIFLY MET'MAP TEAM :

Programmazione e sviluppo : Alexandra Zaïnal
Concezione : Baudouin d'Aumeries
Aiuto per la programmazione : Marc-Olivier Méhu
Supporto tecnico e logistico : Manuel Goepfert
Aiuto per la traduzione : Arnaldo La Scala

Contatto : metmap@orbifly.com




FONTI E CREDITI :

   NOAA       Earth
Advisory